Location: Çayiçi
(36.4667°N, 30.2333°E)
Time: 02:39:00
(UTC+00:00)

Cosmos 1356 Rocket - Pass Details

Date: 09 February 2023
Orbit: 538 x 590 km, 81.2° (Epoch: 01 April)

Event Time Altitude Azimuth Distance (km) Brightness Sun altitude
Rises 17:12:52 0° 198° (SSW) 2,688 7.1 -20.5°
Reaches altitude 10° 17:15:04 10° 202° (SSW) 1,796 6.2 -20.9°
Maximum altitude 17:18:55 53° 280° (W) 664 4.0 -21.7°
Drops below altitude 10° 17:22:49 10° 359° (N) 1,804 5.9 -22.5°
Enters shadow 17:24:10 - 2° (N) 2,351 6.5 -22.7°
